Voltar ao catálogo

ANIK B1

TELESAT-4

AtivoComunicaçõesGEO
NORAD 11153·PAYLOAD·🇨🇦 Canada

Lançado Dec 16, 1978 de Cape Canaveral Space Force Station

Loading…

TLE

AtualizadoSource: Space-Track

Época: Sep 14, 2026, 14:20 UTC

1 11153U 78116A   26257.59737443 -.00000317  00000-0  00000-0 0  9990
2 11153   9.3481 315.5300 0019150 324.9332  40.1753  0.99812330136923

Acompanhe ANIK B1 em tempo real com AllMySat

Download on the App Store